Location: Ch�ze
(42.9000°N, 0.0333°W)
Time: 00:12:05
(UTC+00:00)

X-37B - Pass Details

Date: 24 January 2021
Orbit: 383 x 391 km, 45.0° (Epoch: 10 February)

Event Time Altitude Azimuth Distance (km) Brightness Sun altitude
Rises 18:23:20 0° 271° (W) 2,271 6.1 -14.8°
Reaches altitude 10° 18:25:25 10° 276° (W) 1,418 4.6 -15.1°
Maximum altitude 18:28:34 57° 356° (N) 465 0.9 -15.7°
Enters shadow 18:29:28 39° 53° (NE) 600 1.1 -15.9°
